Location: Mahannah Oil Field
(37.4664°N, 96.6003°W)
Time: 11:37:31
(UTC+00:00)

Altair - Pass Details

Date: 22 January 2021
Orbit: 1501 x 1682 km, 47.2° (Epoch: 24 February)

Event Time Altitude Azimuth Distance (km) Brightness Sun altitude
Exits shadow 11:43:06 15° 231° (SW) 3,458 9.0 -22.4°
Maximum altitude 11:51:44 84° 145° (SE) 1,684 7.6 -20.7°
Drops below altitude 10° 12:01:57 10° 59° (ENE) 3,948 10.3 -18.7°
Sets 12:05:08 0° 59° (ENE) 4,933 10.9 -18.1°
